| time (UTC) | temp F | wind direction | speed MPH | gust MPH | rain 1hr in | rain 24hr in | rain mn in | humidity % | barometer mb |
| 20260506001955 | 48 | 90 | 1.0 | 2.0 | 0.00 | 0.20 | 0.00 | 94 | 1005.6 |
| 20260506001453 | 48 | 90 | 1.0 | 2.0 | 0.00 | 0.20 | 0.00 | 94 | 1005.6 |
| 20260506000952 | 48 | 90 | 1.0 | 2.0 | 0.00 | 0.20 | 0.00 | 94 | 1005.7 |
| 20260506000451 | 48 | 90 | 1.0 | 2.0 | 0.00 | 0.20 | 0.00 | 94 | 1005.7 |
| 20260505235950 | 48 | 45 | 1.0 | 1.0 | 0.00 | 0.20 | 0.00 | 94 | 1005.9 |
| 20260505235450 | 48 | 45 | 1.0 | 1.0 | 0.00 | 0.20 | 0.00 | 94 | 1005.9 |
| 20260505234948 | 49 | 54 | 1.0 | 2.0 | 0.00 | 0.20 | 0.00 | 94 | 1006.0 |
| 20260505234447 | 49 | 54 | 1.0 | 2.0 | 0.00 | 0.20 | 0.00 | 94 | 1006.0 |
| 20260505233946 | 49 | 54 | 1.0 | 2.0 | 0.00 | 0.20 | 0.00 | 94 | 1006.0 |
| 20260505233445 | 49 | 90 | 1.0 | 2.0 | 0.00 | 0.20 | 0.00 | 93 | 1006.0 |
| 20260505232945 | 49 | 90 | 1.0 | 2.0 | 0.00 | 0.20 | 0.00 | 93 | 1006.0 |
| 20260505232444 | 49 | 53 | 1.0 | 2.0 | 0.00 | 0.20 | 0.00 | 93 | 1006.0 |
| 20260505231943 | 49 | 53 | 1.0 | 2.0 | 0.00 | 0.20 | 0.00 | 93 | 1006.0 |
| 20260505231442 | 49 | 27 | 1.0 | 2.0 | 0.00 | 0.20 | 0.00 | 93 | 1006.0 |
| 20260505230941 | 49 | 27 | 1.0 | 2.0 | 0.00 | 0.20 | 0.00 | 93 | 1006.0 |
| 20260505230440 | 50 | 90 | 1.0 | 2.0 | 0.00 | 0.20 | 0.00 | 93 | 1006.0 |
| 20260505225939 | 50 | 90 | 1.0 | 2.0 | 0.00 | 0.20 | 0.00 | 93 | 1006.0 |
| 20260505225437 | 50 | 90 | 1.0 | 2.0 | 0.00 | 0.20 | 0.00 | 93 | 1006.0 |
| 20260505224936 | 50 | 90 | 1.0 | 2.0 | 0.00 | 0.20 | 0.00 | 93 | 1006.0 |
| 20260505224435 | 50 | 135 | 1.0 | 2.0 | 0.00 | 0.20 | 0.00 | 93 | 1006.0 |
| 20260505223934 | 50 | 135 | 1.0 | 2.0 | 0.00 | 0.20 | 0.00 | 93 | 1006.0 |
| 20260505223434 | 50 | 52 | 1.0 | 2.0 | 0.00 | 0.20 | 0.00 | 93 | 1005.9 |
| 20260505222933 | 50 | 52 | 1.0 | 2.0 | 0.00 | 0.20 | 0.00 | 93 | 1005.9 |
| 20260505222432 | 50 | 90 | 1.0 | 2.0 | 0.00 | 0.20 | 0.00 | 93 | 1005.9 |
| 20260505221931 | 50 | 90 | 1.0 | 2.0 | 0.00 | 0.20 | 0.00 | 93 | 1005.9 |
| 20260505221430 | 50 | 161 | 1.0 | 2.0 | 0.00 | 0.20 | 0.00 | 93 | 1005.9 |
| 20260505220928 | 50 | 161 | 1.0 | 2.0 | 0.00 | 0.20 | 0.00 | 93 | 1005.9 |
| 20260505220427 | 51 | 90 | 1.0 | 2.0 | 0.00 | 0.20 | 0.00 | 92 | 1005.9 |
| 20260505215927 | 51 | 90 | 1.0 | 2.0 | 0.00 | 0.20 | 0.20 | 92 | 1005.9 |
| 20260505215426 | 51 | 45 | 1.0 | 1.0 | 0.00 | 0.20 | 0.20 | 92 | 1006.0 |
| 20260505214924 | 51 | 45 | 1.0 | 1.0 | 0.00 | 0.20 | 0.20 | 92 | 1006.0 |
| 20260505214424 | 51 | 90 | 1.0 | 2.0 | 0.00 | 0.20 | 0.20 | 92 | 1006.2 |
| 20260505213923 | 51 | 90 | 1.0 | 2.0 | 0.00 | 0.20 | 0.20 | 92 | 1006.2 |
| 20260505213422 | 51 | 45 | 1.0 | 1.0 | 0.00 | 0.20 | 0.20 | 92 | 1006.0 |
| 20260505212951 | 51 | 45 | 1.0 | 1.0 | 0.00 | 0.20 | 0.20 | 92 | 1006.0 |
| 20260505212419 | 52 | 90 | 1.0 | 2.0 | 0.00 | 0.20 | 0.20 | 92 | 1006.0 |
| 20260505211918 | 52 | 90 | 1.0 | 2.0 | 0.00 | 0.20 | 0.20 | 92 | 1006.0 |
| 20260505211417 | 52 | 135 | 1.0 | 2.0 | 0.00 | 0.20 | 0.20 | 92 | 1006.0 |
| 20260505210916 | 52 | 135 | 1.0 | 2.0 | 0.00 | 0.20 | 0.20 | 92 | 1006.0 |
| 20260505210415 | 52 | 214 | 1.0 | 2.0 | 0.00 | 0.20 | 0.20 | 92 | 1006.0 |
| 20260505205915 | 52 | 214 | 1.0 | 2.0 | 0.00 | 0.20 | 0.20 | 92 | 1006.0 |
| 20260505205414 | 53 | 187 | 1.0 | 2.0 | 0.00 | 0.20 | 0.20 | 92 | 1005.9 |
| 20260505204913 | 53 | 187 | 1.0 | 2.0 | 0.00 | 0.20 | 0.20 | 92 | 1005.9 |
| 20260505204412 | 53 | 168 | 1.0 | 2.0 | 0.00 | 0.20 | 0.20 | 92 | 1005.9 |
| 20260505203911 | 53 | 168 | 1.0 | 2.0 | 0.00 | 0.20 | 0.20 | 92 | 1005.9 |
| 20260505203410 | 53 | 191 | 1.0 | 2.0 | 0.00 | 0.20 | 0.20 | 92 | 1005.9 |
| 20260505202909 | 53 | 191 | 1.0 | 2.0 | 0.00 | 0.20 | 0.20 | 92 | 1005.9 |
| 20260505202408 | 53 | 171 | 1.0 | 2.0 | 0.00 | 0.20 | 0.20 | 91 | 1005.6 |
| 20260505201906 | 53 | 171 | 1.0 | 2.0 | 0.00 | 0.20 | 0.20 | 91 | 1005.6 |
| 20260505201406 | 54 | 161 | 1.0 | 2.0 | 0.00 | 0.20 | 0.20 | 91 | 1005.5 |
| 20260505200905 | 54 | 161 | 1.0 | 2.0 | 0.00 | 0.20 | 0.20 | 91 | 1005.5 |
| 20260505200404 | 54 | 171 | 1.0 | 2.0 | 0.00 | 0.20 | 0.20 | 91 | 1005.5 |
| 20260505195903 | 54 | 171 | 1.0 | 2.0 | 0.00 | 0.20 | 0.20 | 91 | 1005.5 |
| 20260505195402 | 55 | 180 | 1.0 | 2.0 | 0.00 | 0.20 | 0.20 | 90 | 1005.5 |
| 20260505194900 | 55 | 180 | 1.0 | 2.0 | 0.00 | 0.20 | 0.20 | 90 | 1005.5 |
| 20260505194359 | 55 | 180 | 1.0 | 2.0 | 0.00 | 0.20 | 0.20 | 90 | 1005.5 |
| 20260505193858 | 55 | 180 | 1.0 | 2.0 | 0.00 | 0.20 | 0.20 | 90 | 1005.5 |
| 20260505193358 | 55 | 47 | 2.0 | 3.0 | 0.00 | 0.20 | 0.20 | 90 | 1005.5 |
| 20260505192857 | 55 | 47 | 2.0 | 3.0 | 0.00 | 0.20 | 0.20 | 90 | 1005.5 |
| 20260505192356 | 56 | 49 | 2.0 | 3.0 | 0.00 | 0.20 | 0.20 | 90 | 1005.5 |
| 20260505191855 | 56 | 49 | 2.0 | 3.0 | 0.00 | 0.20 | 0.20 | 90 | 1005.5 |
| 20260505191354 | 56 | 51 | 2.0 | 2.0 | 0.01 | 0.20 | 0.20 | 90 | 1005.3 |
| 20260505190852 | 56 | 51 | 2.0 | 2.0 | 0.01 | 0.20 | 0.20 | 90 | 1005.3 |
| 20260505190352 | 56 | 36 | 2.0 | 3.0 | 0.01 | 0.20 | 0.20 | 90 | 1005.2 |
| 20260505185851 | 56 | 36 | 2.0 | 3.0 | 0.01 | 0.20 | 0.20 | 90 | 1005.2 |
| 20260505185350 | 56 | 47 | 2.0 | 3.0 | 0.01 | 0.20 | 0.20 | 89 | 1005.1 |
| 20260505184848 | 56 | 47 | 2.0 | 3.0 | 0.01 | 0.20 | 0.20 | 89 | 1005.1 |
| 20260505184347 | 57 | 42 | 2.0 | 3.0 | 0.02 | 0.20 | 0.20 | 89 | 1005.0 |
| 20260505183846 | 57 | 42 | 2.0 | 3.0 | 0.02 | 0.20 | 0.20 | 89 | 1005.0 |
| 20260505183348 | 57 | 199 | 2.0 | 6.0 | 0.03 | 0.20 | 0.20 | 88 | 1005.1 |
| 20260505182845 | 57 | 199 | 2.0 | 6.0 | 0.03 | 0.20 | 0.20 | 88 | 1005.1 |
| 20260505182344 | 58 | 202 | 1.0 | 3.0 | 0.03 | 0.19 | 0.19 | 89 | 1005.1 |
| 20260505181843 | 58 | 202 | 1.0 | 3.0 | 0.03 | 0.19 | 0.19 | 89 | 1005.1 |
| 20260505181341 | 58 | 202 | 1.0 | 3.0 | 0.03 | 0.19 | 0.19 | 89 | 1005.1 |
| 20260505180841 | 58 | 202 | 1.0 | 3.0 | 0.03 | 0.19 | 0.19 | 89 | 1005.1 |
| 20260505180339 | 58 | 203 | 1.0 | 3.0 | 0.04 | 0.19 | 0.19 | 89 | 1005.2 |
| 20260505175838 | 58 | 203 | 1.0 | 3.0 | 0.04 | 0.19 | 0.19 | 89 | 1005.2 |
| 20260505175337 | 59 | 225 | 1.0 | 2.0 | 0.06 | 0.19 | 0.19 | 89 | 1005.1 |
| 20260505174837 | 59 | 225 | 1.0 | 2.0 | 0.06 | 0.19 | 0.19 | 89 | 1005.1 |
| 20260505174336 | 59 | 225 | 1.0 | 2.0 | 0.05 | 0.18 | 0.18 | 89 | 1005.1 |
| 20260505173835 | 59 | 225 | 1.0 | 2.0 | 0.05 | 0.18 | 0.18 | 89 | 1005.1 |
| 20260505173334 | 59 | 270 | 1.0 | 2.0 | 0.04 | 0.17 | 0.17 | 89 | 1005.1 |
| 20260505172833 | 59 | 270 | 1.0 | 2.0 | 0.04 | 0.17 | 0.17 | 89 | 1005.1 |
| 20260505172333 | 60 | 236 | 1.0 | 2.0 | 0.04 | 0.17 | 0.17 | 88 | 1005.2 |
| 20260505171831 | 60 | 236 | 1.0 | 2.0 | 0.04 | 0.17 | 0.17 | 88 | 1005.2 |
| 20260505171330 | 60 | 290 | 1.0 | 3.0 | 0.03 | 0.16 | 0.16 | 88 | 1005.1 |
| 20260505170829 | 60 | 290 | 1.0 | 3.0 | 0.03 | 0.16 | 0.16 | 88 | 1005.1 |
| 20260505170327 | 61 | 298 | 2.0 | 4.0 | 0.01 | 0.14 | 0.14 | 86 | 1005.2 |
| 20260505165826 | 61 | 298 | 2.0 | 4.0 | 0.01 | 0.14 | 0.14 | 86 | 1005.2 |
| 20260505165326 | 61 | 293 | 2.0 | 5.0 | 0.00 | 0.13 | 0.13 | 85 | 1005.0 |
| 20260505164825 | 61 | 293 | 2.0 | 5.0 | 0.00 | 0.13 | 0.13 | 85 | 1005.0 |
| 20260505164325 | 61 | 302 | 2.0 | 4.0 | 0.00 | 0.13 | 0.13 | 84 | 1004.9 |
| 20260505163823 | 61 | 302 | 2.0 | 4.0 | 0.00 | 0.13 | 0.13 | 84 | 1004.9 |
| 20260505163322 | 61 | 327 | 1.0 | 4.0 | 0.00 | 0.13 | 0.13 | 84 | 1004.7 |
| 20260505162821 | 61 | 327 | 1.0 | 4.0 | 0.00 | 0.13 | 0.13 | 84 | 1004.7 |
| 20260505162321 | 61 | 331 | 1.0 | 4.0 | 0.00 | 0.13 | 0.13 | 84 | 1004.7 |
| 20260505161818 | 61 | 331 | 1.0 | 4.0 | 0.00 | 0.13 | 0.13 | 84 | 1004.7 |
| 20260505161317 | 61 | 0 | 1.0 | 3.0 | 0.00 | 0.13 | 0.13 | 84 | 1004.7 |
| 20260505160817 | 61 | 0 | 1.0 | 3.0 | 0.00 | 0.13 | 0.13 | 84 | 1004.7 |
| 20260505160316 | 62 | 19 | 1.0 | 4.0 | 0.00 | 0.13 | 0.13 | 85 | 1004.8 |
| 20260505153310 | 61 | 45 | 1.0 | 4.0 | 0.00 | 0.13 | 0.13 | 86 | 1004.8 |
| 20260505152809 | 61 | 45 | 1.0 | 4.0 | 0.00 | 0.13 | 0.13 | 86 | 1004.8 |
| 20260505152308 | 61 | 23 | 1.0 | 5.0 | 0.00 | 0.13 | 0.13 | 85 | 1004.9 |
| 20260505151807 | 61 | 45 | 2.0 | 5.0 | 0.00 | 0.13 | 0.13 | 85 | 1004.9 |
| 20260505151306 | 61 | 45 | 2.0 | 5.0 | 0.00 | 0.13 | 0.13 | 85 | 1004.9 |
| 20260505150805 | 61 | 45 | 2.0 | 5.0 | 0.00 | 0.13 | 0.13 | 85 | 1004.9 |
| 20260505150304 | 60 | 20 | 1.0 | 4.0 | 0.01 | 0.13 | 0.13 | 86 | 1005.0 |
| 20260505140252 | 59 | 301 | 2.0 | 4.0 | 0.01 | 0.12 | 0.12 | 87 | 1005.7 |
| 20260505130240 | 60 | 270 | 1.0 | 4.0 | 0.07 | 0.12 | 0.12 | 86 | 1006.4 |
| 20260505124736 | 60 | 270 | 1.0 | 2.0 | 0.10 | 0.11 | 0.11 | 85 | 1006.4 |
| 20260505124235 | 60 | 270 | 1.0 | 3.0 | 0.10 | 0.10 | 0.10 | 85 | 1006.3 |
| 20260505123734 | 60 | 270 | 1.0 | 3.0 | 0.10 | 0.10 | 0.10 | 85 | 1006.3 |
| 20260505123233 | 60 | 254 | 1.0 | 4.0 | 0.10 | 0.10 | 0.10 | 84 | 1006.3 |
| 20260505122733 | 60 | 254 | 1.0 | 4.0 | 0.10 | 0.10 | 0.10 | 84 | 1006.3 |
| 20260505122232 | 61 | 225 | 1.0 | 3.0 | 0.09 | 0.09 | 0.09 | 82 | 1006.3 |
| 20260505121730 | 61 | 225 | 1.0 | 3.0 | 0.09 | 0.09 | 0.09 | 82 | 1006.3 |
| 20260505121229 | 61 | 221 | 1.0 | 4.0 | 0.08 | 0.08 | 0.08 | 80 | 1006.3 |
| 20260505120728 | 61 | 221 | 1.0 | 4.0 | 0.08 | 0.08 | 0.08 | 80 | 1006.3 |
| 20260505120227 | 62 | 180 | 3.0 | 9.0 | 0.05 | 0.05 | 0.05 | 77 | 1006.3 |
| 20260505115726 | 62 | 180 | 3.0 | 9.0 | 0.05 | 0.05 | 0.05 | 77 | 1006.3 |
| 20260505115226 | 65 | 239 | 2.0 | 6.0 | 0.01 | 0.01 | 0.01 | 72 | 1006.0 |
| 20260505114725 | 65 | 239 | 2.0 | 6.0 | 0.01 | 0.01 | 0.01 | 72 | 1006.0 |
| 20260505114224 | 67 | 196 | 2.0 | 5.0 | 0.00 | 0.00 | 0.00 | 67 | 1005.7 |
| 20260505113723 | 67 | 196 | 2.0 | 5.0 | 0.00 | 0.00 | 0.00 | 67 | 1005.7 |
| 20260505113221 | 68 | 153 | 1.0 | 2.0 | 0.00 | 0.00 | 0.00 | 66 | 1005.6 |
| 20260505112720 | 68 | 153 | 1.0 | 2.0 | 0.00 | 0.00 | 0.00 | 66 | 1005.6 |
| 20260505112219 | 68 | 180 | 1.0 | 2.0 | 0.00 | 0.00 | 0.00 | 64 | 1005.5 |
| 20260505111718 | 68 | 180 | 1.0 | 2.0 | 0.00 | 0.00 | 0.00 | 64 | 1005.5 |
| 20260505111218 | 68 | 135 | 1.0 | 2.0 | 0.00 | 0.00 | 0.00 | 64 | 1005.5 |
| 20260505110717 | 68 | 135 | 1.0 | 2.0 | 0.00 | 0.00 | 0.00 | 64 | 1005.5 |
| 20260505110217 | 68 | 153 | 1.0 | 2.0 | 0.00 | 0.00 | 0.00 | 64 | 1005.6 |
| 20260505102207 | 69 | 108 | 1.0 | 4.0 | 0.00 | 0.00 | 0.00 | 62 | 1005.7 |
| 20260505101707 | 69 | 108 | 1.0 | 4.0 | 0.00 | 0.00 | 0.00 | 62 | 1005.7 |
| 20260505101206 | 69 | 146 | 1.0 | 4.0 | 0.00 | 0.00 | 0.00 | 63 | 1005.8 |
| 20260505100715 | 69 | 146 | 1.0 | 4.0 | 0.00 | 0.00 | 0.00 | 63 | 1005.8 |
| 20260505100204 | 69 | 341 | 1.0 | 4.0 | 0.00 | 0.00 | 0.00 | 62 | 1005.8 |
| 20260505095703 | 69 | 341 | 1.0 | 4.0 | 0.00 | 0.00 | 0.00 | 62 | 1005.8 |
| 20260505095203 | 69 | 311 | 2.0 | 7.0 | 0.00 | 0.00 | 0.00 | 62 | 1005.8 |
| 20260505094701 | 69 | 311 | 2.0 | 7.0 | 0.00 | 0.00 | 0.00 | 62 | 1005.8 |
| 20260505094159 | 70 | 161 | 1.0 | 15.0 | 0.00 | 0.00 | 0.00 | 59 | 1005.9 |
| 20260505093658 | 70 | 161 | 1.0 | 15.0 | 0.00 | 0.00 | 0.00 | 59 | 1005.9 |
| 20260505093157 | 71 | 90 | 1.0 | 4.0 | 0.00 | 0.00 | 0.00 | 60 | 1005.9 |
| 20260505092656 | 71 | 90 | 1.0 | 4.0 | 0.00 | 0.00 | 0.00 | 60 | 1005.9 |
| 20260505092156 | 71 | 120 | 1.0 | 4.0 | 0.00 | 0.00 | 0.00 | 61 | 1006.0 |
| 20260505091656 | 71 | 120 | 1.0 | 4.0 | 0.00 | 0.00 | 0.00 | 61 | 1006.0 |
| 20260505091154 | 71 | 156 | 2.0 | 8.0 | 0.00 | 0.00 | 0.00 | 62 | 1006.2 |
| 20260505090652 | 71 | 156 | 2.0 | 8.0 | 0.00 | 0.00 | 0.00 | 62 | 1006.2 |
| 20260505090153 | 69 | 330 | 1.0 | 4.0 | 0.00 | 0.00 | 0.00 | 65 | 1006.3 |
| 20260505085651 | 69 | 330 | 1.0 | 4.0 | 0.00 | 0.00 | 0.00 | 65 | 1006.3 |
| 20260505085150 | 69 | 161 | 1.0 | 4.0 | 0.00 | 0.00 | 0.00 | 63 | 1006.3 |
| 20260505084650 | 69 | 161 | 1.0 | 4.0 | 0.00 | 0.00 | 0.00 | 63 | 1006.3 |
| 20260505084148 | 68 | 149 | 1.0 | 2.0 | 0.00 | 0.00 | 0.00 | 63 | 1006.4 |
| 20260505083647 | 68 | 149 | 1.0 | 2.0 | 0.00 | 0.00 | 0.00 | 63 | 1006.4 |
| 20260505083145 | 68 | 90 | 1.0 | 3.0 | 0.00 | 0.00 | 0.00 | 65 | 1006.5 |
| 20260505082644 | 68 | 90 | 1.0 | 3.0 | 0.00 | 0.00 | 0.00 | 65 | 1006.5 |
| 20260505082144 | 67 | 127 | 1.0 | 5.0 | 0.00 | 0.00 | 0.00 | 68 | 1006.5 |
| 20260505081642 | 67 | 127 | 1.0 | 5.0 | 0.00 | 0.00 | 0.00 | 68 | 1006.5 |
| 20260505081144 | 65 | 122 | 1.0 | 5.0 | 0.00 | 0.00 | 0.00 | 70 | 1006.7 |
| 20260505080640 | 65 | 122 | 1.0 | 5.0 | 0.00 | 0.00 | 0.00 | 70 | 1006.7 |
| 20260505080141 | 64 | 180 | 1.0 | 7.0 | 0.00 | 0.00 | 0.00 | 71 | 1006.8 |
| 20260505075639 | 64 | 180 | 1.0 | 7.0 | 0.00 | 0.00 | 0.00 | 71 | 1006.8 |
| 20260505075138 | 64 | 152 | 1.0 | 5.0 | 0.00 | 0.00 | 0.00 | 74 | 1006.9 |
| 20260505074637 | 64 | 152 | 1.0 | 5.0 | 0.00 | 0.00 | 0.00 | 74 | 1006.9 |
| 20260505074137 | 62 | 127 | 1.0 | 4.0 | 0.00 | 0.00 | 0.00 | 76 | 1007.0 |
| 20260505073635 | 62 | 127 | 1.0 | 4.0 | 0.00 | 0.00 | 0.00 | 76 | 1007.0 |
| 20260505073134 | 61 | 135 | 1.0 | 2.0 | 0.00 | 0.00 | 0.00 | 76 | 1007.0 |
| 20260505072633 | 61 | 135 | 1.0 | 2.0 | 0.00 | 0.00 | 0.00 | 76 | 1007.0 |
| 20260505072132 | 60 | 307 | 1.0 | 4.0 | 0.00 | 0.00 | 0.00 | 76 | 1007.0 |
| 20260505071631 | 60 | 307 | 1.0 | 4.0 | 0.00 | 0.00 | 0.00 | 76 | 1007.0 |
| 20260505071130 | 60 | 319 | 1.0 | 3.0 | 0.00 | 0.00 | 0.00 | 77 | 1007.0 |
| 20260505070629 | 60 | 319 | 1.0 | 3.0 | 0.00 | 0.00 | 0.00 | 77 | 1007.0 |
| 20260505070128 | 59 | 26 | 1.0 | 4.0 | 0.00 | 0.00 | 0.00 | 78 | 1007.0 |
| 20260505065627 | 59 | 26 | 1.0 | 4.0 | 0.00 | 0.00 | 0.00 | 78 | 1007.0 |
| 20260505065126 | 59 | 354 | 1.0 | 4.0 | 0.00 | 0.00 | 0.00 | 78 | 1007.0 |
| 20260505064624 | 59 | 354 | 1.0 | 4.0 | 0.00 | 0.00 | 0.00 | 78 | 1007.0 |
| 20260505064123 | 58 | 45 | 1.0 | 2.0 | 0.00 | 0.00 | 0.00 | 81 | 1007.1 |
| 20260505063623 | 58 | 45 | 1.0 | 2.0 | 0.00 | 0.00 | 0.00 | 81 | 1007.1 |
| 20260505063124 | 57 | 315 | 1.0 | 2.0 | 0.00 | 0.00 | 0.00 | 82 | 1007.1 |
| 20260505062621 | 57 | 315 | 1.0 | 2.0 | 0.00 | 0.00 | 0.00 | 82 | 1007.1 |
| 20260505062120 | 55 | 286 | 2.0 | 4.0 | 0.00 | 0.00 | 0.00 | 83 | 1007.1 |
| 20260505061620 | 55 | 286 | 2.0 | 4.0 | 0.00 | 0.00 | 0.00 | 83 | 1007.1 |
| 20260505061117 | 55 | 305 | 1.0 | 4.0 | 0.00 | 0.00 | 0.00 | 84 | 1007.1 |
| 20260505060617 | 55 | 305 | 1.0 | 4.0 | 0.00 | 0.00 | 0.00 | 84 | 1007.1 |
| 20260505060116 | 55 | 326 | 1.0 | 2.0 | 0.00 | 0.00 | 0.00 | 84 | 1007.1 |
| 20260505055615 | 55 | 326 | 1.0 | 2.0 | 0.00 | 0.00 | 0.00 | 84 | 1007.1 |
| 20260505055114 | 54 | 315 | 1.0 | 2.0 | 0.00 | 0.00 | 0.00 | 85 | 1007.1 |
| 20260505054614 | 54 | 315 | 1.0 | 2.0 | 0.00 | 0.00 | 0.00 | 85 | 1007.1 |
| 20260505054112 | 54 | 359 | 1.0 | 2.0 | 0.00 | 0.00 | 0.00 | 84 | 1007.1 |
| 20260505053611 | 54 | 359 | 1.0 | 2.0 | 0.00 | 0.00 | 0.00 | 84 | 1007.1 |
| 20260505053109 | 54 | 270 | 1.0 | 2.0 | 0.00 | 0.00 | 0.00 | 84 | 1007.1 |
| 20260505052608 | 54 | 270 | 1.0 | 2.0 | 0.00 | 0.00 | 0.00 | 84 | 1007.1 |
| 20260505052107 | 53 | 270 | 1.0 | 2.0 | 0.00 | 0.00 | 0.00 | 85 | 1007.1 |
| 20260505051608 | 53 | 270 | 1.0 | 2.0 | 0.00 | 0.00 | 0.00 | 85 | 1007.1 |
| 20260505051106 | 53 | 270 | 1.0 | 2.0 | 0.00 | 0.00 | 0.00 | 85 | 1007.2 |
| 20260505050605 | 53 | 270 | 1.0 | 2.0 | 0.00 | 0.00 | 0.00 | 85 | 1007.2 |
| 20260505050103 | 53 | 348 | 1.0 | 2.0 | 0.00 | 0.00 | 0.00 | 85 | 1007.3 |
| 20260505041554 | 53 | 0 | 1.0 | 2.0 | 0.00 | 0.00 | 0.00 | 83 | 1007.5 |
| 20260505041053 | 53 | 270 | 1.0 | 2.0 | 0.00 | 0.00 | 0.00 | 83 | 1007.4 |
| 20260505040552 | 53 | 270 | 1.0 | 2.0 | 0.00 | 0.00 | 0.00 | 83 | 1007.4 |
| 20260505040051 | 53 | 18 | 1.0 | 2.0 | 0.00 | 0.00 | 0.00 | 82 | 1007.3 |
| 20260505035550 | 53 | 18 | 1.0 | 2.0 | 0.00 | 0.00 | 0.00 | 82 | 1007.3 |
| 20260505035050 | 53 | 315 | 1.0 | 2.0 | 0.00 | 0.00 | 0.00 | 82 | 1007.4 |
| 20260505034548 | 53 | 315 | 1.0 | 2.0 | 0.00 | 0.00 | 0.00 | 82 | 1007.4 |
| 20260505034048 | 53 | 321 | 1.0 | 2.0 | 0.00 | 0.00 | 0.00 | 83 | 1007.4 |
| 20260505033546 | 53 | 321 | 1.0 | 2.0 | 0.00 | 0.00 | 0.00 | 83 | 1007.4 |
| 20260505033045 | 53 | 359 | 1.0 | 2.0 | 0.00 | 0.00 | 0.00 | 82 | 1007.4 |
| 20260505032544 | 53 | 359 | 1.0 | 2.0 | 0.00 | 0.00 | 0.00 | 82 | 1007.4 |
| 20260505032043 | 53 | 45 | 1.0 | 1.0 | 0.00 | 0.00 | 0.00 | 82 | 1007.5 |
| 20260505031542 | 53 | 45 | 1.0 | 1.0 | 0.00 | 0.00 | 0.00 | 82 | 1007.5 |
| 20260505031041 | 54 | 311 | 1.0 | 2.0 | 0.00 | 0.00 | 0.00 | 83 | 1007.8 |
| 20260505030541 | 54 | 311 | 1.0 | 2.0 | 0.00 | 0.00 | 0.00 | 83 | 1007.8 |
| 20260505030042 | 54 | 300 | 1.0 | 2.0 | 0.00 | 0.00 | 0.00 | 82 | 1007.9 |
| 20260505025539 | 54 | 300 | 1.0 | 2.0 | 0.00 | 0.00 | 0.00 | 82 | 1007.9 |
| 20260505025038 | 54 | 318 | 1.0 | 2.0 | 0.00 | 0.00 | 0.00 | 82 | 1007.9 |
| 20260505024537 | 54 | 318 | 1.0 | 2.0 | 0.00 | 0.00 | 0.00 | 82 | 1007.9 |
| 20260505024035 | 54 | 315 | 1.0 | 3.0 | 0.00 | 0.00 | 0.00 | 81 | 1008.0 |
| 20260505023534 | 54 | 315 | 1.0 | 3.0 | 0.00 | 0.00 | 0.00 | 81 | 1008.0 |
| 20260505023033 | 54 | 308 | 1.0 | 3.0 | 0.00 | 0.00 | 0.00 | 81 | 1008.1 |
| 20260505022532 | 54 | 308 | 1.0 | 3.0 | 0.00 | 0.00 | 0.00 | 81 | 1008.1 |
| 20260505022031 | 54 | 317 | 1.0 | 3.0 | 0.00 | 0.00 | 0.00 | 81 | 1008.2 |
| 20260505021530 | 54 | 317 | 1.0 | 3.0 | 0.00 | 0.00 | 0.00 | 81 | 1008.2 |
| 20260505021030 | 54 | 304 | 1.0 | 2.0 | 0.00 | 0.00 | 0.00 | 81 | 1008.3 |
| 20260505020529 | 54 | 304 | 1.0 | 2.0 | 0.00 | 0.00 | 0.00 | 81 | 1008.3 |
| 20260505020028 | 54 | 302 | 1.0 | 3.0 | 0.00 | 0.00 | 0.00 | 81 | 1008.5 |
| 20260505015527 | 54 | 302 | 1.0 | 3.0 | 0.00 | 0.00 | 0.00 | 81 | 1008.5 |
| 20260505015026 | 54 | 288 | 1.0 | 2.0 | 0.00 | 0.00 | 0.00 | 80 | 1008.7 |
| 20260505014524 | 54 | 288 | 1.0 | 2.0 | 0.00 | 0.00 | 0.00 | 80 | 1008.7 |
| 20260505014023 | 55 | 1 | 2.0 | 4.0 | 0.00 | 0.00 | 0.00 | 80 | 1008.8 |
| 20260505013523 | 55 | 1 | 2.0 | 4.0 | 0.00 | 0.00 | 0.00 | 80 | 1008.8 |
| 20260505013022 | 55 | 2 | 2.0 | 3.0 | 0.00 | 0.00 | 0.00 | 80 | 1009.0 |
| 20260505012521 | 55 | 2 | 2.0 | 3.0 | 0.00 | 0.00 | 0.00 | 80 | 1009.0 |
| 20260505012020 | 55 | 3 | 2.0 | 3.0 | 0.00 | 0.00 | 0.00 | 80 | 1009.2 |
| 20260505011519 | 55 | 3 | 2.0 | 3.0 | 0.00 | 0.00 | 0.00 | 80 | 1009.2 |
| 20260505011017 | 55 | 5 | 2.0 | 3.0 | 0.00 | 0.00 | 0.00 | 80 | 1009.2 |
| 20260505010516 | 55 | 5 | 2.0 | 3.0 | 0.00 | 0.00 | 0.00 | 80 | 1009.2 |
| 20260505010015 | 55 | 2 | 2.0 | 3.0 | 0.00 | 0.00 | 0.00 | 79 | 1009.3 |
| 20260505005514 | 55 | 2 | 2.0 | 3.0 | 0.00 | 0.00 | 0.00 | 79 | 1009.3 |
| 20260505004513 | 55 | 1 | 2.0 | 3.0 | 0.00 | 0.00 | 0.00 | 79 | 1009.4 |
| 20260505003510 | 55 | 53 | 2.0 | 2.0 | 0.00 | 0.00 | 0.00 | 79 | 1009.4 |
| 20260505002509 | 55 | 59 | 2.0 | 2.0 | 0.00 | 0.00 | 0.00 | 79 | 1009.4 |